Weather History for San Antonio, TX

Change the Weather History Date:

Thursday, August 14, 2014

  Actual Average Record
Temperature  
Mean Temperature 86 °F 86 °F  
Max Temperature 101 °F 97 °F 103 °F (1969)
Min Temperature 71 °F 75 °F 63 °F (1967)
Degree Days  
Heating Degree Days 0 0  
Month to date heating degree days 0 0  
Since 1 June heating degree days 0 0  
Since 1 July heating degree days 0 0  
Cooling Degree Days 21 21  
Month to date cooling degree days 310 294  
Year to date cooling degree days 2189 2054  
Since 1 June cooling degree days 1485 1425  
Growing Degree Days 36 (Base 50)    
Moisture  
Dew Point 59 °F    
Average Humidity 44    
Maximum Humidity 68    
Minimum Humidity 19    
Precipitation  
Precipitation 0.00 in 0.05 in 0.75 in (1984)
Month to date precipitation 0.08 0.69  
Year to date precipitation 16.07 19.54  
Snow  
Snow 0.00 in - - ()
Month to date snowfall 0.0  
Since 1 June snowfall 0.0  
Since 1 July snowfall 0.0  
Snow Depth 0.00 in    
Sea Level Pressure  
Sea Level Pressure 29.95 in    
Wind  
Wind Speed 6 mph (ESE)    
Max Wind Speed 18 mph    
Max Gust Speed 23 mph    
Visibility 10 miles    
Events      
T = Trace of Precipitation, MM = Missing Value Source: NWS Daily Summary

Daily Weather History Graph

Daily Weather History Graph

Search for Another Location

Airport:

Trip Planner

Search our weather history database for the weather conditions in past years. The results will help you decide how hot, cold, wet, or windy it might be!

Date:

Astronomy

Aug. 14, 2014 Rise Set
Actual Time 7:01 AM CDT 8:15 PM CDT
Civil Twilight 6:36 AM CDT 8:40 PM CDT
Nautical Twilight 6:06 AM CDT 9:09 PM CDT
Astronomical Twilight 5:35 AM CDT 9:40 PM CDT
Moon 11:05 PM CDT (8/14) 11:15 AM CDT (8/14)
Length of Visible Light 14h 03m
Length of Day
13h 13m
Waning Gibbous, 79% of the Moon is Illuminated
Aug 14
Waning Gibbous
Aug 17
Last Quarter
Aug 25
New
Sep 2
First Quarter
Sep 8
Full

Hourly Weather History & Observations

Time (CDT) Temp. Heat Index Dew Point Humidity Pressure Visibility Wind Dir Wind Speed Gust Speed Precip Events Conditions
12:51 AM 81.0 °F 81.0 °F 57.0 °F 44% 29.98 in 10.0 mi ENE 3.5 mph - N/A   Clear
1:51 AM 78.1 °F - 57.0 °F 48% 29.97 in 10.0 mi NE 3.5 mph - N/A   Clear
2:51 AM 77.0 °F - 57.0 °F 50% 29.97 in 10.0 mi Calm Calm - N/A   Clear
3:51 AM 73.9 °F - 59.0 °F 59% 29.97 in 10.0 mi NNW 3.5 mph - N/A   Clear
4:51 AM 73.4 °F - 60.8 °F 65% 30.03 in 10.0 mi NW 3.5 mph - N/A   Clear
5:51 AM 71.1 °F - 60.1 °F 68% 29.96 in 10.0 mi WNW 4.6 mph - N/A   Clear
6:51 AM 72.0 °F - 61.0 °F 68% 29.97 in 10.0 mi Calm Calm - N/A   Clear
7:51 AM 73.0 °F - 62.1 °F 68% 29.99 in 10.0 mi Calm Calm - N/A   Clear
8:51 AM 81.0 °F 81.7 °F 61.0 °F 50% 30.01 in 10.0 mi Calm Calm - N/A   Clear
9:51 AM 84.2 °F 85.0 °F 62.6 °F 48% 30.06 in 10.0 mi Calm Calm - N/A   Clear
10:51 AM 88.0 °F 89.3 °F 64.0 °F 45% 30.00 in 10.0 mi Variable 4.6 mph - N/A   Partly Cloudy
11:51 AM 91.9 °F 91.2 °F 59.0 °F 33% 29.99 in 10.0 mi Variable 3.5 mph - N/A   Partly Cloudy
12:51 PM 93.9 °F 93.2 °F 59.0 °F 31% 29.96 in 10.0 mi Variable 4.6 mph - N/A   Partly Cloudy
1:51 PM 98.1 °F 97.7 °F 59.0 °F 27% 29.94 in 10.0 mi East 11.5 mph - N/A   Partly Cloudy
2:51 PM 97.0 °F 96.1 °F 57.9 °F 27% 29.92 in 10.0 mi SSW 4.6 mph - N/A   Partly Cloudy
3:51 PM 99.0 °F 97.7 °F 55.9 °F 24% 29.90 in 10.0 mi Variable 3.5 mph - N/A   Partly Cloudy
4:51 PM 100.0 °F - 52.0 °F 20% 29.88 in 10.0 mi ESE 13.8 mph - N/A   Partly Cloudy
5:51 PM 99.0 °F - 50.0 °F 19% 29.87 in 10.0 mi ESE 9.2 mph - N/A   Partly Cloudy
6:51 PM 97.0 °F 94.6 °F 54.0 °F 23% 29.86 in 10.0 mi ESE 8.1 mph - N/A   Scattered Clouds
7:51 PM 93.0 °F 91.1 °F 55.0 °F 28% 29.86 in 10.0 mi ESE 8.1 mph - N/A   Scattered Clouds
8:51 PM 89.1 °F 87.1 °F 55.0 °F 31% 29.87 in 10.0 mi East 3.5 mph - N/A   Partly Cloudy
9:51 PM 89.6 °F 91.1 °F 64.4 °F 43% 29.96 in 10.0 mi ESE 11.5 mph - N/A   Partly Cloudy
10:51 PM 88.0 °F 89.6 °F 64.9 °F 46% 29.92 in 10.0 mi SSE 16.1 mph - N/A   Partly Cloudy
11:51 PM 84.9 °F 86.1 °F 64.0 °F 49% 29.93 in 10.0 mi SSE 10.4 mph - N/A   Scattered Clouds